OPS 3367 A

Satellite information

Favourite Embed

Satellite Type and Status

PAYLOADIN ORBIT

Key statistics

Satellite OPS 3367 A at a glance.

Uptime

22610

Days in orbit

Revolutions

≈ 14.3

Per day

Orbit

SSO

Sun Synchronous Orbit

Inclination

99.0

Latest

Satellite identification and parameters

Extended collection of information and parameters for OPS 3367 A.

Object identification

Identified? True

Debris? False

Object name: OPS 3367 A

International designator: 1964-002B

Object number (NORAD): 734

Object ID (CCSDS): 734

Country: UNITED STATES OF AMERICA (US)

Current information (Y/N): Y

RCS size: MEDIUM

Orbital parameters

Period: 100.725 minutes

Inclination: 98.9723 deg

SMA: 7171.088 km

Apoapsis: 803.477 km

Periapsis: 782.43 km

RAAN: 267.245 deg

Eccentricy: 0.00146748

Argument of periapsis: 9.217 deg

Mean anomaly: 350.9278 deg

Mean motion: 14.29634995 rev/day

Mean motion (dot): 0.00000216 rev/day2

B* drag term: 0.00010269749 1/REarth

Two-line elements (TLE)

Creation date: Dec. 14, 2025, 3:07 a.m.

Reference frame: TEME

Reference center: EARTH

Epoch: Dec. 13, 2025, 5:01 p.m. UTC

TLE line 0: 0 OPS 3367 A

TLE line 1: 1 00734U 64002B 25347.70969809 .00000216 00000-0 10270-3 0 9997

TLE line 2: 2 00734 98.9723 267.2450 0014675 9.2170 350.9278 14.29634995222262

Live tracking on map

Real-time ground track for satellite OPS 3367 A.

In-orbit conjunctions

There are no conjunctions computed for OPS 3367 A, at the moment. Check back to stay up to date, as we update our databases every day.

Go to all conjunctions

Associated space launch

The DSAP-1 (Defense Satellite Application Program Block 1) satellites series, also known as P-35, was the first series of military meteorologal satellites of the USA.

OPS 3367 A was lifted into orbit during the mission ‘Thor SLV-2 Agena D | DSAP-1 F6 & F7’, on board a Thor SLV-2 Agena D space rocket.

The launch took place on Jan. 19, 1964, 10:59 a.m. from Space Launch Complex 2W.

For more information about the launch, click the button.

Launch to space Thor SLV-2 Agena D | DSAP-1 F6 & F7
Thor SLV-2 Agena D | DSAP-1 F6 & F7

Agency: N/A

Status: Launch Successful

Launch date: Jan. 19, 1964, 10:59 a.m. UTC

Rocket: Thor SLV-2 Agena D

Launch pad: Space Launch Complex 2W

Location: Vandenberg SFB, CA, USA

...

Latest news about this satellite

There are no fresh news available about this satellite. Check back as we update our databases every day.


Newsletter sign-up

Weekly statistics, charts and insights to help you stay on top of the space industry.